| time (UTC) | temp C | wind direction | speed KPH | gust KPH | rain 1hr cm | rain 24hr cm | rain mn cm | humidity % | barometer mb |
| 20260507060005 | 9 | 88 | 4.8 | 6.4 | 0.00 | 0.00 | 0.00 | 86 | 1016.1 |
| 20260507055005 | 8 | 76 | 1.6 | 4.8 | 0.00 | 0.00 | 0.00 | 86 | 1015.8 |
| 20260507054005 | 8 | 72 | 1.6 | 3.2 | 0.00 | 0.00 | 0.00 | 86 | 1015.7 |
| 20260507053005 | 8 | 57 | 1.6 | 3.2 | 0.00 | 0.00 | 0.00 | 85 | 1015.7 |
| 20260507052005 | 8 | 60 | 3.2 | 6.4 | 0.00 | 0.00 | 0.00 | 85 | 1015.6 |
| 20260507051005 | 8 | 61 | 4.8 | 6.4 | 0.00 | 0.00 | 0.00 | 85 | 1015.6 |
| 20260507050005 | 8 | 55 | 3.2 | 6.4 | 0.00 | 0.00 | 0.00 | 85 | 1015.5 |
| 20260507045005 | 8 | 55 | 4.8 | 6.4 | 0.00 | 0.00 | 0.00 | 84 | 1015.7 |
| 20260507044005 | 8 | 47 | 3.2 | 4.8 | 0.00 | 0.00 | 0.00 | 84 | 1015.6 |
| 20260507043004 | 8 | 45 | 3.2 | 4.8 | 0.00 | 0.00 | 0.00 | 84 | 1015.6 |
| 20260507042004 | 8 | 45 | 3.2 | 4.8 | 0.00 | 0.00 | 0.00 | 84 | 1015.5 |
| 20260507041004 | 8 | 45 | 3.2 | 4.8 | 0.00 | 0.00 | 0.00 | 84 | 1015.4 |
| 20260507040005 | 8 | 47 | 1.6 | 3.2 | 0.00 | 0.00 | 0.00 | 84 | 1015.4 |
| 20260507035004 | 8 | 56 | 1.6 | 3.2 | 0.00 | 0.00 | 0.00 | 84 | 1015.5 |
| 20260507034004 | 8 | 60 | 1.6 | 3.2 | 0.00 | 0.00 | 0.00 | 84 | 1015.6 |
| 20260507032004 | 8 | 68 | 1.6 | 3.2 | 0.00 | 0.00 | 0.00 | 84 | 1015.7 |
| 20260507031004 | 8 | 57 | 1.6 | 3.2 | 0.00 | 0.00 | 0.00 | 83 | 1015.5 |
| 20260507030004 | 8 | 0 | 0.0 | 0.0 | 0.00 | 0.00 | 0.00 | 83 | 1015.6 |
| 20260507025005 | 8 | 0 | 0.0 | 0.0 | 0.00 | 0.00 | 0.00 | 83 | 1015.5 |
| 20260507023004 | 8 | 0 | 0.0 | 0.0 | 0.00 | 0.00 | 0.00 | 82 | 1015.3 |
| 20260507022004 | 8 | 90 | 0.0 | 1.6 | 0.00 | 0.00 | 0.00 | 81 | 1015.3 |
| 20260507021004 | 9 | 270 | 0.0 | 1.6 | 0.00 | 0.00 | 0.00 | 81 | 1015.2 |
| 20260507020005 | 9 | 0 | 0.0 | 0.0 | 0.00 | 0.00 | 0.00 | 80 | 1015.1 |
| 20260507015005 | 9 | 270 | 0.0 | 3.2 | 0.00 | 0.00 | 0.00 | 80 | 1015.1 |
| 20260507014004 | 9 | 274 | 1.6 | 3.2 | 0.00 | 0.00 | 0.00 | 80 | 1015.2 |
| 20260507013004 | 9 | 303 | 3.2 | 4.8 | 0.00 | 0.00 | 0.00 | 79 | 1015.2 |
| 20260507012004 | 9 | 28 | 1.6 | 3.2 | 0.00 | 0.00 | 0.00 | 79 | 1015.3 |
| 20260507010005 | 10 | 36 | 1.6 | 3.2 | 0.00 | 0.00 | 0.00 | 78 | 1015.2 |
| 20260507005004 | 10 | 26 | 1.6 | 3.2 | 0.00 | 0.00 | 0.00 | 78 | 1015.1 |
| 20260507004005 | 10 | 28 | 1.6 | 3.2 | 0.00 | 0.00 | 0.00 | 78 | 1015.1 |
| 20260507003005 | 10 | 36 | 1.6 | 3.2 | 0.00 | 0.00 | 0.00 | 78 | 1015.1 |
| 20260507002005 | 10 | 58 | 1.6 | 3.2 | 0.00 | 0.00 | 0.00 | 77 | 1014.9 |
| 20260507000005 | 10 | 71 | 3.2 | 4.8 | 0.00 | 0.00 | 0.00 | 77 | 1015.0 |
| 20260506235004 | 10 | 74 | 3.2 | 6.4 | 0.00 | 0.00 | 0.00 | 76 | 1015.0 |
| 20260506234004 | 10 | 70 | 3.2 | 6.4 | 0.00 | 0.00 | 0.00 | 76 | 1015.1 |
| 20260506233004 | 10 | 61 | 3.2 | 6.4 | 0.00 | 0.00 | 0.00 | 76 | 1015.1 |
| 20260506232004 | 10 | 45 | 1.6 | 4.8 | 0.00 | 0.00 | 0.00 | 76 | 1015.1 |
| 20260506231004 | 10 | 0 | 0.0 | 0.0 | 0.00 | 0.00 | 0.00 | 75 | 1015.1 |
| 20260506230012 | 10 | 0 | 0.0 | 0.0 | 0.00 | 0.00 | 0.00 | 75 | 1015.0 |
| 20260506225004 | 10 | 51 | 0.0 | 1.6 | 0.00 | 0.00 | 0.00 | 75 | 1015.0 |
| 20260506224004 | 10 | 51 | 0.0 | 1.6 | 0.00 | 0.00 | 0.00 | 74 | 1015.0 |
| 20260506223004 | 10 | 53 | 1.6 | 3.2 | 0.00 | 0.00 | 0.00 | 74 | 1015.0 |
| 20260506222005 | 10 | 60 | 3.2 | 4.8 | 0.00 | 0.00 | 0.00 | 74 | 1014.9 |
| 20260506221005 | 10 | 68 | 3.2 | 4.8 | 0.00 | 0.00 | 0.00 | 74 | 1014.9 |
| 20260506220005 | 10 | 75 | 3.2 | 4.8 | 0.00 | 0.00 | 0.00 | 74 | 1014.7 |
| 20260506215006 | 10 | 78 | 3.2 | 6.4 | 0.00 | 0.00 | 0.00 | 74 | 1014.7 |
| 20260506214005 | 10 | 78 | 3.2 | 4.8 | 0.00 | 0.00 | 0.00 | 73 | 1014.7 |
| 20260506213005 | 10 | 77 | 3.2 | 4.8 | 0.00 | 0.00 | 0.00 | 73 | 1014.8 |
| 20260506212005 | 10 | 67 | 3.2 | 4.8 | 0.00 | 0.00 | 0.00 | 73 | 1014.9 |
| 20260506211010 | 10 | 66 | 3.2 | 6.4 | 0.00 | 0.00 | 0.00 | 73 | 1014.7 |
| 20260506210007 | 10 | 61 | 3.2 | 6.4 | 0.00 | 0.00 | 0.00 | 73 | 1014.6 |
| 20260506203004 | 11 | 61 | 6.4 | 9.7 | 0.00 | 0.00 | 0.00 | 71 | 1014.6 |
| 20260506202005 | 11 | 62 | 6.4 | 9.7 | 0.00 | 0.00 | 0.00 | 70 | 1014.6 |
| 20260506201004 | 11 | 62 | 8.0 | 12.9 | 0.00 | 0.00 | 0.00 | 69 | 1014.4 |
| 20260506200004 | 11 | 56 | 6.4 | 11.3 | 0.00 | 0.00 | 0.00 | 68 | 1014.2 |
| 20260506195004 | 11 | 60 | 9.7 | 16.1 | 0.00 | 0.00 | 0.00 | 68 | 1014.1 |
| 20260506194005 | 11 | 67 | 8.0 | 12.9 | 0.00 | 0.00 | 0.00 | 67 | 1014.1 |
| 20260506193005 | 11 | 69 | 8.0 | 14.5 | 0.00 | 0.00 | 0.00 | 67 | 1014.1 |
| 20260506192005 | 11 | 68 | 9.7 | 14.5 | 0.00 | 0.00 | 0.00 | 67 | 1013.9 |
| 20260506191006 | 11 | 67 | 11.3 | 14.5 | 0.00 | 0.00 | 0.00 | 67 | 1013.9 |
| 20260506190006 | 11 | 58 | 11.3 | 19.3 | 0.00 | 0.00 | 0.00 | 66 | 1013.9 |
| 20260506185005 | 12 | 54 | 11.3 | 17.7 | 0.00 | 0.00 | 0.00 | 63 | 1013.7 |
| 20260506184006 | 12 | 52 | 9.7 | 16.1 | 0.00 | 0.00 | 0.00 | 62 | 1013.7 |
| 20260506183006 | 12 | 47 | 11.3 | 16.1 | 0.00 | 0.00 | 0.00 | 61 | 1013.6 |
| 20260506181005 | 12 | 39 | 9.7 | 17.7 | 0.00 | 0.00 | 0.00 | 59 | 1013.4 |
| 20260506180006 | 12 | 34 | 9.7 | 16.1 | 0.00 | 0.00 | 0.00 | 58 | 1013.3 |
| 20260506172005 | 13 | 15 | 9.7 | 16.1 | 0.00 | 0.00 | 0.00 | 57 | 1013.1 |
| 20260506171005 | 13 | 10 | 8.0 | 14.5 | 0.00 | 0.00 | 0.00 | 56 | 1013.0 |
| 20260506170005 | 13 | 22 | 6.4 | 9.7 | 0.00 | 0.00 | 0.00 | 56 | 1012.9 |
| 20260506165005 | 13 | 36 | 8.0 | 14.5 | 0.00 | 0.00 | 0.00 | 56 | 1013.0 |
| 20260506164005 | 13 | 24 | 6.4 | 11.3 | 0.00 | 0.00 | 0.00 | 56 | 1013.0 |
| 20260506163005 | 13 | 22 | 8.0 | 12.9 | 0.00 | 0.00 | 0.00 | 55 | 1012.8 |
| 20260506161006 | 13 | 356 | 8.0 | 16.1 | 0.00 | 0.00 | 0.00 | 57 | 1013.1 |
| 20260506155006 | 13 | 5 | 8.0 | 16.1 | 0.00 | 0.00 | 0.00 | 56 | 1013.1 |
| 20260506154006 | 13 | 5 | 9.7 | 16.1 | 0.00 | 0.00 | 0.00 | 55 | 1013.1 |
| 20260506153006 | 13 | 6 | 12.9 | 19.3 | 0.00 | 0.00 | 0.00 | 54 | 1013.1 |
| 20260506152005 | 13 | 3 | 8.0 | 16.1 | 0.00 | 0.00 | 0.00 | 51 | 1013.2 |
| 20260506150006 | 13 | 13 | 11.3 | 19.3 | 0.00 | 0.00 | 0.00 | 49 | 1012.9 |
| 20260506145005 | 14 | 20 | 11.3 | 17.7 | 0.00 | 0.00 | 0.00 | 48 | 1013.0 |
| 20260506144005 | 14 | 28 | 9.7 | 17.7 | 0.00 | 0.00 | 0.00 | 46 | 1012.8 |
| 20260506142006 | 15 | 15 | 12.9 | 17.7 | 0.00 | 0.00 | 0.00 | 47 | 1012.8 |
| 20260506140006 | 14 | 27 | 11.3 | 19.3 | 0.00 | 0.00 | 0.00 | 45 | 1012.7 |
| 20260506135005 | 15 | 28 | 11.3 | 17.7 | 0.00 | 0.00 | 0.00 | 44 | 1012.7 |
| 20260506134005 | 15 | 28 | 12.9 | 17.7 | 0.00 | 0.00 | 0.00 | 44 | 1012.7 |
| 20260506133006 | 15 | 32 | 16.1 | 20.9 | 0.00 | 0.00 | 0.00 | 43 | 1012.7 |
| 20260506132005 | 15 | 23 | 14.5 | 20.9 | 0.00 | 0.00 | 0.00 | 44 | 1012.6 |
| 20260506131006 | 15 | 15 | 16.1 | 22.5 | 0.00 | 0.00 | 0.00 | 44 | 1012.7 |
| 20260506130007 | 15 | 10 | 14.5 | 29.0 | 0.00 | 0.00 | 0.00 | 45 | 1012.8 |
| 20260506125005 | 15 | 4 | 14.5 | 24.1 | 0.00 | 0.00 | 0.00 | 45 | 1012.8 |
| 20260506124006 | 15 | 359 | 16.1 | 24.1 | 0.00 | 0.00 | 0.00 | 44 | 1012.8 |
| 20260506123006 | 15 | 1 | 19.3 | 35.4 | 0.00 | 0.00 | 0.00 | 44 | 1012.8 |
| 20260506122005 | 15 | 2 | 12.9 | 27.4 | 0.00 | 0.00 | 0.00 | 45 | 1012.9 |
| 20260506121005 | 15 | 3 | 17.7 | 20.9 | 0.00 | 0.00 | 0.00 | 45 | 1012.8 |
| 20260506120005 | 15 | 6 | 19.3 | 27.4 | 0.00 | 0.00 | 0.00 | 44 | 1013.1 |
| 20260506115005 | 15 | 2 | 17.7 | 27.4 | 0.00 | 0.00 | 0.00 | 45 | 1013.0 |
| 20260506112006 | 16 | 351 | 17.7 | 27.4 | 0.00 | 0.00 | 0.00 | 46 | 1013.0 |
| 20260506111006 | 16 | 357 | 17.7 | 30.6 | 0.00 | 0.00 | 0.00 | 46 | 1012.9 |
| 20260506110006 | 15 | 355 | 17.7 | 27.4 | 0.00 | 0.00 | 0.00 | 46 | 1012.9 |
| 20260506104005 | 15 | 348 | 14.5 | 24.1 | 0.00 | 0.00 | 0.00 | 51 | 1013.0 |
| 20260506103005 | 13 | 343 | 14.5 | 25.7 | 0.00 | 0.00 | 0.00 | 51 | 1012.9 |
| 20260506101006 | 14 | 355 | 12.9 | 19.3 | 0.00 | 0.00 | 0.00 | 54 | 1013.0 |
| 20260506100006 | 13 | 353 | 16.1 | 24.1 | 0.00 | 0.00 | 0.00 | 54 | 1013.0 |
| 20260506095006 | 15 | 354 | 12.9 | 19.3 | 0.00 | 0.00 | 0.00 | 54 | 1013.0 |
| 20260506094006 | 14 | 9 | 11.3 | 17.7 | 0.00 | 0.00 | 0.00 | 55 | 1013.1 |
| 20260506093006 | 13 | 6 | 12.9 | 17.7 | 0.00 | 0.00 | 0.00 | 58 | 1013.1 |
| 20260506092006 | 13 | 2 | 11.3 | 17.7 | 0.00 | 0.00 | 0.00 | 57 | 1013.1 |
| 20260506091006 | 12 | 3 | 12.9 | 17.7 | 0.00 | 0.00 | 0.00 | 61 | 1012.9 |
| 20260506090006 | 11 | 353 | 14.5 | 20.9 | 0.00 | 0.00 | 0.00 | 65 | 1012.9 |
| 20260506085006 | 11 | 352 | 11.3 | 17.7 | 0.00 | 0.00 | 0.00 | 67 | 1013.0 |
| 20260506084006 | 11 | 358 | 12.9 | 22.5 | 0.00 | 0.00 | 0.00 | 65 | 1013.0 |
| 20260506083005 | 10 | 357 | 16.1 | 30.6 | 0.00 | 0.00 | 0.00 | 64 | 1013.0 |
| 20260506082006 | 10 | 357 | 16.1 | 24.1 | 0.00 | 0.00 | 0.00 | 65 | 1013.0 |
| 20260506081006 | 10 | 351 | 16.1 | 22.5 | 0.00 | 0.00 | 0.00 | 66 | 1012.9 |
| 20260506073006 | 10 | 4 | 11.3 | 16.1 | 0.00 | 0.00 | 0.00 | 69 | 1012.7 |